Regional Weather Roundup
Issued by NWS

Home | Current Version | Previous Version | Text Only | Print | Product List | Glossary Off
Versions: 1 2 3 4 5 6 7 8 9 10 11 12 13 14 15 16 17 18 19 20 21 22 23 24 25 26 27 28 29 30 31 32 33 34 35 36 37 38 39 40 41 42 43 44 45 46 47 48 49 50

000
ASUS45 KBOU 211407
RWRCO

WEATHER ROUNDUP FOR COLORADO
NATIONAL WEATHER SERVICE DENVER/BOULDER CO
800 AM MDT SAT OCT 21 2017

NOTE: "FAIR" INDICATES FEW OR NO CLOUDS BELOW 12000 FEET WITH NO
SIGNIFICANT WEATHER AND/OR OBSTRUCTIONS TO VISIBILITY.

COZ001>005-013-030-031-211500-
...NORTHWEST COLORADO...

CITY           SKY/WX    TMP DP  RH WIND       PRES   REMARKS
CRAIG          FAIR      21  18  88 SE5       30.09R WCI  15
HAYDEN         CLOUDY    26  22  84 S6        30.10R WCI  19
MEEKER         FAIR      25  23  92 CALM      30.09R
RABBIT EARS PA SNOW      16  14  93 W12G20    30.00R VSB 1/2 WCI   3
STEAMBOAT SPGS CLOUDY    27  24  90 CALM      30.08R
WALDEN         NOT AVBL
$$

COZ006>008-011-211500-
...WEST CENTRAL VALLEYS...

CITY           SKY/WX    TMP DP  RH WIND       PRES   REMARKS
GRAND JUNCTION FAIR      30  16  56 CALM      30.09R
MONTROSE       FAIR      33  16  49 S3        30.11R
EAGLE          CLOUDY    31  29  92 NE6       30.10  WCI  25
RIFLE          FAIR      33  28  81 SW3       30.09R
DELTA          FAIR      42  16  34 W14       30.07S
NUCLA          FAIR      36  10  35 NW8       30.13R
$$

COZ017>023-064>068-211500-
...SOUTHWEST COLORADO...

CITY           SKY/WX    TMP DP  RH WIND       PRES   REMARKS
DURANGO        FAIR      40  21  46 W10       29.99R
CORTEZ         FAIR      36  14  40 CALM      30.07R
PAGOSA SPRINGS FAIR      42  22  45 SW6       30.00R
TELLURIDE      NOT AVBL
WOLF CREEK PAS FAIR      21  14  73 S18G26    30.09R WCI   6
$$

COZ009-010-012-014-032>034-037-058>063-211500-
...CENTRAL COLORADO...

CITY           SKY/WX    TMP DP  RH WIND       PRES   REMARKS
ASPEN          MOCLDY    30  25  81 E3        30.06R
BUENA VISTA    FAIR      34  15  46 SW9G22    29.96R WCI  26
COPPER MTN     CLOUDY    19  14  79 MISG      29.99R
BERTHOUD PASS  CLOUDY     9  -2  61 NW33      29.89R WCI -15
COTTONWOOD PAS FAIR      32  16  51 W28G51    29.92R WCI  18
GUNNISON       FAIR      31  19  61 CALM      30.05R
KREMMLING      MOCLDY    34  23  64 CALM      30.07R
LEADVILLE      CLOUDY    21  11  65 W15G22    30.01R WCI   8
MONARCH PASS   CLOUDY    18  14  86 W16       30.12R WCI   3
SALIDA         FAIR      39  20  46 W17G30    30.02R
SUNLIGHT       CLOUDY    18  14  86 MISG      30.09R
WILKERSON PASS FAIR      21   5  49 NW8G18    29.99R WCI  12
$$

COZ069>075-211500-
...SAN LUIS VALLEY/SANGRE DE CRISTO MOUNTAINS...

CITY           SKY/WX    TMP DP  RH WIND       PRES   REMARKS
ALAMOSA        MOCLDY    38  23  55 N12       29.98R
DEL NORTE      FAIR      31  26  79 N6        29.98R WCI  26
LA VETA PASS   FAIR      34  23  64 S10G29    30.09R WCI  26
SAGUACHE       FAIR      32  21  64 NW13G20   30.00R WCI  22
$$

COZ035-036-038>040-211500-
...NORTHERN COLORADO FRONT RANGE...

CITY           SKY/WX    TMP DP  RH WIND       PRES   REMARKS
DENVER INTL AP MOCLDY    44  16  32 SW12      29.90R
DMNS CITY PARK   N/A     45   9  23 W15G29    29.92R
AURORA         MOCLDY    41  17  37 W14G21    29.93R
FRONT RANGE AP MOCLDY    43  19  39 NW6       29.92R
ERIE MUNI ARPT FAIR      43  10  26 W9        29.96R
BOULDER MUN AP FAIR      45  10  24 W20G30    29.89R
CENTENNIAL     MOCLDY    39  14  36 NW9G21    29.92R
BROOMFIELD     PTCLDY    41  12  30 SW18G31   29.93R
FORT COLLINS   FAIR      43  13  29 NW21      29.92R
LONGMONT       FAIR      46  12  25 W8        29.93R
$$

COZ041-046-047-076>085-087-088-211500-
...PIKES PEAK/PALMER DIVIDE AND SOUTHERN FOOTHILLS...

CITY           SKY/WX    TMP DP  RH WIND       PRES   REMARKS
COLO. SPRINGS  FAIR      48  16  27 N24       29.88R
A. F. ACADEMY  FAIR      44  11  25 N16G23    29.90R
SCHRIEVER AFB  FAIR      38  27  65 NE12      29.89R
CHEYENNE MTN   FAIR      44  13  29 NW10      29.84R
ELLICOTT         N/A    N/A N/A N/A NE22G36   29.88R
FALCON         FAIR      35  22  58 N16       29.92R WCI  25
FORT CARSON    FAIR      47  18  30 CALM      29.86R
LIMON          FAIR      36  33  89 N14       29.90R
MONUMENT HILL  FAIR      32  23  69 E5        29.95R WCI  27
CANON CITY     FAIR      50  23  34 NW20G28   29.86R
WALSENBURG     FAIR      50  27  40 NW20G25   29.88R
TRINIDAD       FAIR      50  28  42 N5        29.85R
$$

COZ042>045-048>051-090-091-211500-
...NORTHEAST COLORADO...

CITY           SKY/WX    TMP DP  RH WIND       PRES   REMARKS
GREELEY ARPT   FAIR      42  17  36 NW21G31   29.92R
AKRON          FAIR      37  27  67 NW13      29.88R
BURLINGTON     FAIR      42  35  76 NW29G46   29.84R
WRAY           NOT AVBL
YUMA           PTSUNNY   39  34  81 NW12      29.86R
STERLING       NOT AVBL
HOLYOKE        LGT RAIN  43  36  75 NW21G29   29.86R
FORT MORGAN    MOCLDY    44  17  34 NW28G36   29.90R
$$

COZ086-089-092>099-211500-
...SOUTHEAST COLORADO...

CITY           SKY/WX    TMP DP  RH WIND       PRES   REMARKS
PUEBLO         FAIR      49  33  54 N10       29.85R
LA JUNTA       FAIR      50  31  48 N18G25    29.86R
LAMAR          FAIR      53  27  36 N14       29.83R
SPRINGFIELD      N/A     53  37  54 N20G26    29.82R
$$



USA.gov is the U.S. government's official web portal to all federal, state and local government web resources and services.